METAR Formatted Surface Weather Observation
Issued by NWS Los Angeles, CA

Home | Current Version | Previous Version | Text Only | Print | Product List | Glossary On
Versions: 1 2 3 4 5 6 7 8 9 10 11 12 13 14 15 16 17 18 19 20 21 22 23 24 25 26 27 28 29 30 31 32 33 34 35 36 37 38 39 40 41 42 43 44 45 46 47 48 49 50
000
SAUS46 KLOX 311453
MTRSMX
METAR KSMX 311451Z 14003KT 9SM FEW020 OVC037 17/13 A2994 RMK AO2
SLP141 T01720133 53005



USA.gov is the U.S. government's official web portal to all federal, state and local government web resources and services.